Tracking 19490 objects as of 23-Jan-2019
HD Live streaming from Space Station
objects crossing your sky now

COSMOS 2523

Track COSMOS 2523 now!
10-day predictions


NORAD ID: 42986
Int'l Code: 2017-037E
Perigee: 560.9 km
Apogee: 670.9 km
Inclination: 97.8 °
Period: 96.9 minutes
Semi major axis: 6986 km
RCS: Unknown
Launch date: June 23, 2017
Source: Commonwealth of Independent States (former USSR) (CIS)
Launch site: PLESETSK MISSILE AND SPACE COMPLEX (PKMTR)
aabbcc
Your satellite tracking list
Your tracking list is empty




NASA's NSSDC Master Catalog

Two Line Element Set (TLE):
1 42986U 17037E   19022.87267600 -.00000209 +00000-0 -15991-4 0  9999
2 42986 097.8268 090.3777 0078733 181.7810 178.3141 14.86551085066817
Source of the keplerian elements: AFSPC